Weather History for KSLH - October, 2012

Change the Weather History Date:

Thursday, October 4, 2012

  Actual Average (KPLN) Record (KPLN)
Temperature  
Mean Temperature 64 °F -  
Max Temperature 71 °F 59 °F 87 °F (2005)
Min Temperature 56 °F 37 °F 21 °F (1965)
Degree Days  
Heating Degree Days 2    
Growing Degree Days 14 (Base 50)    
Moisture  
Dew Point 55 °F    
Average Humidity 80    
Maximum Humidity 99    
Minimum Humidity 54    
Precipitation  
Precipitation 0.00 in - - ()
Sea Level Pressure  
Sea Level Pressure 29.91 in    
Wind  
Wind Speed 2 mph (SW)    
Max Wind Speed 18 mph    
Max Gust Speed 28 mph    
Visibility 7 miles    
Events Rain    
Averages and records for this station are not official NWS values.
T = Trace of Precipitation, MM = Missing Value Source: NWS Daily Summary

Daily Weather History Graph

Daily Weather History Graph

Search for Another Location

Airport or City:

Trip Planner

Search our weather history database for the weather conditions in past years. The results will help you decide how hot, cold, wet, or windy it might be!

Date:

Astronomy

Oct. 04, 2012 Rise Set
Actual Time 7:40 AM EDT 7:11 PM EDT
Civil Twilight 7:11 AM EDT 7:41 PM EDT
Nautical Twilight 6:36 AM EDT 8:15 PM EDT
Astronomical Twilight 6:01 AM EDT 8:50 PM EDT
Moon 9:32 PM EDT (10/4) 12:10 PM EDT (10/4)
Length of Visible Light 12h 30m
Length of Day
11h 30m
Waning Gibbous, 82% of the Moon is Illuminated
Oct 4
Waning Gibbous
Oct 8
Last Quarter
Oct 15
New
Oct 21
First Quarter
Oct 29
Full

Hourly Weather History & Observations

Time (EDT) Temp. Dew Point Humidity Pressure Visibility Wind Dir Wind Speed Gust Speed Precip Events Conditions
12:15 AM 56.7 °F 55.9 °F 97% 29.99 in 2.5 mi Calm Calm - N/A   Overcast
12:35 AM 56.7 °F 55.9 °F 97% 29.99 in 2.5 mi Calm Calm - N/A   Overcast
12:55 AM 57.4 °F 56.7 °F 97% 29.99 in 2.0 mi Calm Calm - N/A   Heavy Drizzle
1:15 AM 57.4 °F 56.7 °F 97% 29.98 in 1.5 mi Calm Calm - N/A   Heavy Drizzle
1:35 AM 57.4 °F 56.7 °F 97% 29.98 in 1.5 mi Calm Calm - N/A   Heavy Drizzle
1:55 AM 57.4 °F 56.7 °F 97% 29.98 in 1.8 mi Calm Calm - N/A Rain Rain
2:15 AM 57.2 °F 56.5 °F 97% 29.97 in 2.0 mi Calm Calm - N/A Rain Rain
2:35 AM 57.4 °F 56.7 °F 97% 29.97 in 2.0 mi Calm Calm - N/A Rain Rain
2:55 AM 57.4 °F 56.7 °F 97% 29.97 in 2.5 mi Calm Calm - N/A Rain Rain
3:16 AM 57.4 °F 56.7 °F 97% 29.96 in 1.8 mi Calm Calm - N/A Rain Heavy Rain
3:35 AM 58.1 °F 57.2 °F 97% 29.95 in 3.0 mi Calm Calm - N/A Rain Rain
3:55 AM 58.3 °F 57.6 °F 97% 29.95 in 3.0 mi Calm Calm - N/A Rain Rain
4:15 AM 57.7 °F 57.2 °F 98% 29.94 in 2.0 mi Calm Calm - N/A Rain Heavy Rain
4:35 AM 58.1 °F 57.4 °F 97% 29.94 in 2.5 mi Calm Calm - N/A Rain Heavy Rain
4:55 AM 57.6 °F 57.2 °F 99% 29.94 in 2.0 mi Calm Calm - N/A Rain Heavy Rain
5:15 AM 57.7 °F 57.2 °F 98% 29.94 in 4.0 mi Calm Calm - N/A Rain Light Rain
5:35 AM 57.7 °F 57.2 °F 98% 29.94 in 4.0 mi Calm Calm - N/A Rain Rain
5:55 AM 57.4 °F 56.7 °F 97% 29.94 in 4.0 mi NNE 3.5 mph - N/A Rain Rain
6:15 AM 57.2 °F 56.7 °F 98% 29.94 in 5.0 mi Calm Calm - N/A   Drizzle
6:55 AM 57.2 °F 56.3 °F 97% 29.94 in 5.0 mi North 5.8 mph - N/A   Drizzle
7:15 AM 56.7 °F 56.1 °F 98% 29.94 in 4.0 mi Calm Calm - N/A Rain Rain
7:34 AM 56.8 °F 56.3 °F 98% 29.94 in 5.0 mi Calm Calm - N/A Rain Rain
7:55 AM 56.7 °F 56.3 °F 99% 29.94 in 5.0 mi Calm Calm - N/A Rain Rain
8:15 AM 57.0 °F 56.3 °F 97% 29.94 in 4.0 mi Calm Calm - N/A   Drizzle
8:35 AM 56.7 °F 55.9 °F 97% 29.94 in 5.0 mi Calm Calm - N/A Rain Rain
8:55 AM 57.2 °F 56.3 °F 97% 29.93 in 7.0 mi SW 3.5 mph - N/A   Overcast
9:15 AM 58.1 °F 57.4 °F 97% 29.93 in 7.0 mi Calm Calm - N/A   Scattered Clouds
9:35 AM 58.3 °F 57.4 °F 97% 29.93 in 10.0 mi Calm Calm - N/A   Mostly Cloudy
9:55 AM 58.6 °F 57.4 °F 96% 29.93 in 10.0 mi Calm Calm - N/A   Overcast
10:15 AM 59.0 °F 57.0 °F 93% 29.94 in 10.0 mi WNW 3.5 mph - N/A   Overcast
10:35 AM 59.2 °F 57.7 °F 95% 29.94 in 10.0 mi Calm Calm - N/A   Overcast
10:55 AM 59.9 °F 57.6 °F 92% 29.94 in 10.0 mi Calm Calm - N/A   Overcast
11:16 AM 60.6 °F 57.4 °F 89% 29.94 in 10.0 mi WSW 3.5 mph - N/A   Overcast
11:35 AM 61.0 °F 57.7 °F 89% 29.94 in 10.0 mi West 3.5 mph - N/A   Overcast
11:55 AM 61.9 °F 57.4 °F 85% 29.94 in 10.0 mi West 3.5 mph - N/A   Overcast
12:16 PM 61.7 °F 56.5 °F 83% 29.93 in 10.0 mi WSW 5.8 mph - N/A   Mostly Cloudy
12:35 PM 62.6 °F 57.4 °F 83% 29.93 in 10.0 mi SW 4.6 mph - N/A   Mostly Cloudy
12:55 PM 64.6 °F 57.6 °F 78% 29.93 in 10.0 mi SSW 5.8 mph - N/A   Mostly Cloudy
1:15 PM 65.3 °F 56.8 °F 74% 29.92 in 10.0 mi SSW 5.8 mph - N/A   Mostly Cloudy
1:35 PM 67.6 °F 55.9 °F 66% 29.91 in 10.0 mi SSW 5.8 mph - N/A   Scattered Clouds
1:55 PM 67.3 °F 55.2 °F 65% 29.91 in 10.0 mi SW 8.1 mph - N/A   Scattered Clouds
2:35 PM 69.8 °F 55.8 °F 61% 29.89 in 10.0 mi SSW 9.2 mph - N/A   Clear
2:56 PM 69.3 °F 56.1 °F 63% 29.89 in 10.0 mi SSW 6.9 mph - N/A   Clear
3:15 PM 69.3 °F 55.4 °F 61% 29.88 in 10.0 mi SSW 8.1 mph - N/A   Clear
3:35 PM 70.3 °F 55.4 °F 59% 29.88 in 10.0 mi SSW 6.9 mph - N/A   Clear
3:55 PM 70.9 °F 54.9 °F 57% 29.87 in 10.0 mi SSW 9.2 mph - N/A   Clear
4:15 PM 71.2 °F 54.3 °F 55% 29.87 in 10.0 mi South 9.2 mph - N/A   Scattered Clouds
4:36 PM 71.2 °F 53.8 °F 54% 29.85 in 10.0 mi SSW 8.1 mph - N/A   Clear
4:55 PM 70.9 °F 53.8 °F 55% 29.85 in 10.0 mi South 4.6 mph - N/A   Clear
5:15 PM 70.7 °F 55.2 °F 58% 29.86 in 10.0 mi South 3.5 mph - N/A   Clear
5:35 PM 70.2 °F 55.4 °F 59% 29.85 in 10.0 mi Calm Calm - N/A   Scattered Clouds
5:55 PM 69.8 °F 55.9 °F 61% 29.86 in 10.0 mi Calm Calm - N/A   Overcast
6:15 PM 69.4 °F 54.5 °F 59% 29.86 in 10.0 mi South 3.5 mph - N/A   Overcast
6:35 PM 68.5 °F 54.1 °F 60% 29.86 in 10.0 mi Calm Calm - N/A   Overcast
6:55 PM 68.0 °F 53.6 °F 60% 29.85 in 10.0 mi Calm Calm - N/A   Overcast
7:15 PM 67.3 °F 53.8 °F 62% 29.85 in 10.0 mi Calm Calm - N/A   Overcast
7:35 PM 66.2 °F 55.4 °F 68% 29.85 in 10.0 mi SSW 3.5 mph - N/A Rain Light Rain
7:55 PM 65.8 °F 55.0 °F 68% 29.84 in 10.0 mi SSW 4.6 mph - N/A   Overcast
8:16 PM 67.1 °F 54.1 °F 63% 29.83 in 10.0 mi South 9.2 mph - N/A   Overcast
8:35 PM 67.3 °F 53.8 °F 62% 29.82 in 10.0 mi SSW 8.1 mph - N/A   Mostly Cloudy
8:55 PM 66.6 °F 53.8 °F 63% 29.83 in 10.0 mi SSW 9.2 mph - N/A   Scattered Clouds
10:16 PM 64.4 °F 51.1 °F 62% 29.85 in 10.0 mi WSW 13.8 mph 27.6 mph N/A   Mostly Cloudy
10:35 PM 63.5 °F 51.1 °F 64% 29.85 in 10.0 mi SW 18.4 mph 25.3 mph N/A   Mostly Cloudy
10:55 PM 62.1 °F 47.8 °F 60% 29.85 in 10.0 mi WSW 15.0 mph 21.9 mph N/A   Scattered Clouds
11:15 PM 61.0 °F 46.9 °F 60% 29.85 in 10.0 mi WSW 11.5 mph 19.6 mph N/A   Clear
11:35 PM 60.3 °F 46.0 °F 59% 29.85 in 10.0 mi WSW 12.7 mph 20.7 mph N/A   Clear
11:55 PM 59.4 °F 45.7 °F 61% 29.85 in 10.0 mi West 10.4 mph 16.1 mph N/A   Clear